Tracking 28915 objects as of 29-May-2024
HD Live streaming from Space Station
objects crossing your sky now

RSW-02

Track RSW-02 now!
10-day predictions


NORAD ID: 49114
Int'l Code: 2021-076C
Perigee: 1,091.5 km
Apogee: 1,120.7 km
Inclination: 86.4 °
Period: 107.2 minutes
Semi major axis: 7477 km
RCS: Unknown
Launch date: August 24, 2021
Source: People's Republic of China (PRC)
Launch site: Jiuquan Satellite Launch Center, China (JSC)
Your satellite tracking list
Your tracking list is empty




NASA's NSSDC Master Catalog

Two Line Element Set (TLE):
1 49114U 21076C   24150.56568301  .00000101  00000-0  15047-3 0  9993
2 49114  86.4079  65.3521 0019535   2.4746 357.6492 13.42784229135415
Source of the keplerian elements: AFSPC